カタログに戻る

STARLINK-37930

運用中通信SSO
NORAD 69668·PAYLOAD·🇺🇸 United States

打ち上げ Jun 21, 2026 から Vandenberg Space Force Base

Loading…

次のパス (今後24時間)

TLE

最新Source: CelesTrak SupGP

元期: Sep 15, 2026, 04:36 UTC

1 69668C 26143V   26258.19215278 -.00042565  00000+0 -13213-2 0  2582
2 69668  97.2836 301.4582 0000800  92.3633 106.0648 15.33462540    18

AllMySatでSTARLINK-37930をリアルタイム追跡

Download on the App Store